Vertical_Velocity
20 10 3 -4 -4 -0 -1 -1 -1 -2 0 3 2 -5 -2 -4 0 0 2 1 1 1
6 6 3 2 -0 -3 -3 1 -2 -4 -4 -5 -3 -0 -1 -3 0 -3 0 2 1 1
5 4 3 2 -1 -7 1 -2 -2 -1 -4 -4 -8 -4 -4 -0 2 -2 -1 2 1 1
4 1 1 0 1 2 1 -1 -2 -4 -4 -5 -4 -5 -5 -1 0 1 2 -1 2 3
2 0 1 0 -3 -2 -3 -2 -1 -3 -6 -3 -4 -1 -6 -1 -1 1 0 2 -3 4
2 -0 7 2 -3 -2 -1 -4 -4 -6 -3 -4 -3 -2 -4 -1 0 -1 -2 1 0 3
-1 -5 -1 1 2 -2 -6 -3 -3 -4 -3 -6 -0 -2 -2 -1 2 -1 -3 1 3 1
2 32 3 2 -1 -4 -4 -4 -6 -4 -3 -2 -2 -0 1 -0 -1 -1 1 -2 1 2
0 6 1 -5 -1 -7 -1 -7 -5 -1 -1 -1 1 -0 1 -1 -2 2 -1 -0 -2 -0
0 -5 -6 -7 -7 -1 -5 -4 -0 -2 2 1 1 -0 -2 -4 -2 1 -2 -0 1 -1
1 2 -7 -2 -3 -6 -1 -1 -1 2 1 3 1 2 -4 -3 1 -1 -1 1 0 2
-0 -6 -5 3 -5 3 -1 -1 1 8 11 3 -1 -2 0 -3 -1 1 2 2 3 2
-1 5 2 -3 -1 1 2 2 13 9 3 1 1 2 -0 -1 1 2 3 5 4 2
-2 -1 -1 -2 3 -5 16 13 11 7 4 5 6 1 1 1 2 2 1 2 1 2
Height
5637 5636 5638 5641 5644 5647 5649 5652 5655 5656 5658 5660 5661 5662 5662 5665 5668 5671 5674 5678 5681 5686
5616 5618 5620 5623 5627 5631 5634 5636 5639 5641 5642 5643 5645 5647 5648 5650 5654 5656 5660 5663 5667 5672
5598 5601 5603 5607 5610 5614 5618 5620 5622 5625 5626 5628 5630 5631 5633 5635 5639 5641 5644 5649 5652 5657
5581 5584 5588 5591 5595 5598 5602 5604 5606 5609 5610 5613 5615 5616 5618 5620 5624 5628 5630 5633 5638 5643
5564 5569 5574 5578 5581 5584 5587 5589 5592 5593 5596 5598 5600 5601 5602 5605 5609 5612 5616 5618 5622 5628
5548 5555 5560 5566 5569 5571 5574 5577 5578 5580 5581 5583 5584 5585 5587 5591 5595 5598 5601 5605 5609 5614
5534 5540 5547 5552 5556 5559 5562 5564 5565 5565 5566 5568 5570 5570 5574 5579 5582 5584 5588 5592 5596 5601
5520 5526 5533 5537 5543 5548 5549 5550 5551 5552 5552 5554 5555 5557 5561 5566 5570 5572 5575 5578 5582 5587
5506 5514 5520 5526 5531 5535 5536 5537 5537 5538 5539 5540 5542 5545 5550 5554 5558 5560 5563 5566 5569 5574
5495 5503 5510 5516 5520 5523 5524 5525 5526 5527 5527 5529 5531 5535 5539 5543 5545 5548 5550 5553 5556 5560
5485 5493 5501 5505 5509 5511 5513 5515 5516 5517 5518 5520 5522 5525 5529 5531 5533 5536 5539 5542 5546 5549
5478 5487 5491 5496 5498 5501 5503 5504 5506 5508 5510 5512 5514 5517 5519 5520 5521 5525 5528 5531 5534 5538
5470 5477 5483 5486 5488 5492 5494 5496 5498 5501 5503 5505 5506 5508 5509 5510 5513 5516 5519 5520 5523 5528
5462 5469 5474 5477 5480 5484 5487 5489 5492 5494 5496 5498 5499 5500 5501 5503 5504 5507 5510 5514 5518 5522